Wind_Speed
44 45 46 46 46 46 45 44 43 43 42 42 41 40 39 39 38 38 36 36 35 34 34 34 33 33 33 33 33 32 32 32 31 31 31 31 30 30 29 28 28 27 27
46 46 47 48 48 48 47 46 45 45 44 44 43 43 42 41 40 39 39 38 37 36 35 35 35 35 35 35 34 34 34 33 33 32 32 32 32 31 31 30 29 29 28
48 48 48 49 49 50 49 48 47 46 46 46 45 45 44 43 42 41 40 40 39 38 38 37 37 36 36 37 36 35 35 35 34 34 33 33 33 33 32 31 30 30 29
48 49 49 49 50 51 51 50 49 49 48 47 46 45 45 45 45 43 42 42 42 41 40 39 39 38 38 37 37 37 37 36 36 35 35 35 34 34 33 32 31 31 30
49 49 49 50 51 51 51 51 51 50 49 49 49 47 46 46 46 45 45 44 43 43 42 42 41 40 40 39 38 38 38 37 37 37 37 36 36 35 35 34 33 33 32
50 50 50 50 51 51 50 50 50 51 51 50 50 50 49 49 48 48 47 45 44 44 44 44 43 43 42 41 41 40 39 39 39 39 38 38 37 37 36 36 35 34 33
49 49 49 50 50 51 51 50 51 52 52 52 52 52 51 52 51 50 49 47 46 46 46 45 44 44 43 43 42 42 41 41 41 41 40 39 39 38 37 37 36 35 34
47 47 47 48 48 49 50 51 51 52 52 53 53 53 52 52 52 52 52 51 49 48 48 47 46 46 45 44 44 44 44 43 42 42 41 41 40 39 39 38 37 36 35
46 46 46 47 48 48 49 50 50 50 52 53 53 54 53 53 53 53 52 52 52 51 48 47 48 48 47 47 47 46 45 44 44 43 42 42 41 41 40 39 38 37 35
43 44 44 45 45 46 47 48 48 49 50 51 52 53 53 54 53 53 53 53 53 52 51 50 49 47 48 48 48 47 46 46 45 45 44 43 43 42 41 41 40 39 38
40 40 41 42 43 44 45 46 48 48 49 50 51 52 52 53 54 55 54 54 55 54 53 52 51 50 49 49 49 48 48 47 46 46 45 45 44 43 43 43 42 41 40
36 37 38 38 40 42 43 44 46 46 47 47 49 50 51 52 53 54 55 55 54 55 55 54 53 52 52 52 52 51 50 49 48 47 47 46 45 44 44 43 43 42 41
32 34 35 35 36 37 38 40 41 43 44 46 47 49 50 51 52 53 54 55 55 54 56 56 56 53 53 52 53 53 53 52 51 49 49 49 48 46 45 45 44 43 42
28 29 31 31 32 33 35 36 37 38 40 41 44 46 49 50 50 51 53 54 55 55 54 54 56 56 55 54 52 53 54 53 52 52 50 49 49 48 47 46 45 44 43
24 26 27 29 31 32 34 35 36 38 38 39 40 42 44 46 48 49 50 52 53 54 54 53 54 55 57 57 55 53 53 54 54 53 53 52 51 51 50 49 48 46 46
24 24 25 27 29 30 33 34 35 37 38 38 38 38 40 42 45 46 48 49 51 54 55 54 55 56 57 57 57 56 55 55 55 55 55 54 54 53 52 51 51 49 48
24 25 26 27 28 30 31 32 33 34 36 37 38 39 40 41 43 45 47 49 51 53 54 53 54 54 56 57 57 56 56 56 56 56 57 57 56 55 54 54 53 52 51
24 25 25 27 28 29 30 31 32 34 35 37 39 40 40 42 43 44 46 48 50 52 53 53 53 54 55 57 56 56 57 57 57 57 58 58 57 57 56 55 55 54 53
22 23 24 26 27 28 31 33 34 35 37 38 40 41 42 43 44 45 46 48 49 51 52 52 53 53 54 56 57 57 57 57 58 59 58 58 59 59 57 57 57 56 55
22 23 25 26 27 29 30 32 34 36 38 39 40 41 42 43 45 46 47 48 49 50 52 54 55 55 55 56 58 59 58 58 59 61 60 59 60 61 61 60 59 59 58
24 25 26 28 29 31 32 34 36 37 39 40 42 43 44 45 46 46 48 49 50 51 53 54 55 56 57 58 59 59 59 59 60 61 62 61 61 62 62 62 61 60 59
26 27 28 30 31 32 34 35 37 38 39 41 43 44 46 47 48 49 49 51 52 53 54 55 56 57 58 59 60 60 61 61 60 61 63 62 62 62 62 62 62 62 61
28 29 31 32 33 34 35 36 37 38 40 42 44 46 48 49 50 51 53 55 55 56 57 58 58 59 59 61 62 61 61 62 61 62 63 63 63 62 63 64 63 63 63
30 31 33 34 35 36 37 38 40 41 42 44 46 48 50 51 53 54 55 56 58 59 59 60 61 61 62 62 63 64 64 63 64 64 65 65 65 65 64 65 65 65 65
33 34 35 36 37 38 39 41 42 43 45 46 48 50 52 53 55 56 57 58 59 60 61 62 62 63 63 64 65 66 67 67 66 67 69 68 67 67 67 66 67 68 68
35 37 37 38 40 41 42 43 45 46 48 49 51 52 54 56 57 58 59 60 60 60 61 61 62 62 63 63 64 66 67 68 68 68 70 71 70 69 69 68 68 68 69
Wind_Direction
267 266 266 265 265 265 265 265 265 265 265 266 265 265 265 265 266 266 266 266 266 266 267 266 266 267 267 268 268 268 269 270 272 273 274 275 277 278 280 282 284 287 290
266 266 266 265 265 264 264 264 264 264 264 264 264 264 264 264 265 266 265 264 263 264 266 266 266 267 267 267 267 267 268 269 270 271 272 273 275 277 278 279 281 284 288
266 266 266 265 264 263 262 262 262 262 262 262 262 263 263 263 264 265 265 263 262 263 265 266 266 266 266 266 267 267 267 267 268 270 271 272 273 275 276 277 279 281 284
266 266 265 265 263 262 261 261 260 260 260 261 260 261 261 262 262 263 265 265 263 263 264 265 265 266 265 265 266 266 267 267 266 268 270 271 272 273 274 276 277 279 282
265 265 265 264 263 262 261 260 259 258 259 259 259 260 259 260 260 261 262 263 263 262 262 263 263 264 265 265 265 265 266 266 265 267 269 270 270 271 272 274 275 277 280
265 265 264 262 261 260 260 259 258 257 257 257 258 258 258 258 259 260 261 261 262 262 261 262 262 263 264 265 265 264 264 265 265 266 267 268 268 268 270 272 274 275 277
265 265 264 262 260 259 258 259 258 257 257 257 258 258 258 257 257 258 259 260 259 259 260 261 260 261 262 263 263 264 263 264 265 266 266 267 267 267 268 270 272 273 275
264 264 264 261 260 259 258 258 257 257 256 256 257 258 257 257 258 258 257 258 258 258 258 258 260 259 259 261 261 262 262 263 264 264 264 264 265 266 267 268 270 272 273
263 263 262 260 259 259 258 257 257 257 257 256 256 257 258 257 258 258 257 257 257 256 257 258 260 260 259 260 260 261 262 262 262 263 263 264 265 265 265 266 268 269 270
264 263 262 260 259 258 257 256 256 257 257 257 257 258 260 260 259 258 258 257 256 257 258 259 261 261 259 259 260 260 260 262 261 260 261 264 265 265 264 265 266 266 268
264 263 263 261 260 259 259 257 257 258 259 259 258 258 260 260 261 262 260 259 259 259 260 261 262 262 259 258 259 260 261 261 262 261 261 263 263 263 263 264 263 263 265
263 263 264 263 262 260 259 259 259 259 259 259 258 259 259 260 262 263 262 261 260 260 260 260 261 261 260 260 260 260 260 260 261 261 261 261 262 262 262 262 262 262 262
267 265 266 266 264 261 262 262 262 261 261 261 260 260 261 261 262 261 263 263 261 260 260 261 260 260 260 259 259 258 259 260 260 261 261 260 260 260 260 259 260 260 260
270 268 267 267 265 265 264 264 264 263 263 263 262 262 262 263 263 263 263 263 261 260 260 260 259 258 258 259 259 257 258 258 259 260 260 259 258 257 257 257 258 258 258
273 273 271 268 266 265 266 265 265 265 265 265 264 264 263 264 265 265 264 263 263 261 260 260 261 260 259 259 259 259 259 259 259 260 259 259 259 257 256 256 256 256 257
280 279 277 273 269 268 267 267 267 266 265 265 267 267 266 266 267 267 265 264 264 263 262 261 261 260 259 259 259 259 260 260 259 258 257 258 258 256 255 254 254 255 256
282 281 278 276 274 271 270 270 269 268 267 268 268 269 270 270 269 269 267 266 265 265 264 263 263 262 260 260 259 259 260 260 258 257 257 257 256 254 253 253 253 254 255
284 282 279 279 277 275 273 273 273 272 271 271 272 272 272 272 271 272 271 268 267 267 267 265 264 263 261 260 260 259 258 258 258 258 257 256 254 253 252 251 252 252 253
290 288 285 284 283 279 278 276 275 274 274 274 275 275 274 274 274 273 272 271 271 270 269 268 266 264 263 262 261 260 259 258 257 257 256 255 253 252 250 250 251 251 250
295 293 291 289 287 285 283 281 279 278 277 276 276 276 276 276 275 275 274 274 273 272 270 269 267 265 264 263 261 260 259 258 256 255 255 254 253 252 251 250 250 249 249
297 296 294 292 290 288 286 284 282 282 280 280 280 279 278 278 277 277 276 275 275 274 272 270 269 267 266 264 263 262 260 257 256 255 254 254 254 253 252 251 249 249 248
297 296 296 295 294 292 291 289 287 285 284 283 282 281 281 280 279 279 278 277 276 275 273 272 270 269 267 265 263 262 260 258 257 255 254 254 253 252 251 251 250 249 248
299 299 299 298 297 296 294 292 290 288 287 286 284 283 283 282 282 281 280 279 278 276 274 273 271 270 269 267 265 264 261 259 258 256 254 253 252 250 250 250 249 248 248
302 301 301 300 299 297 296 295 293 291 290 288 287 286 286 284 283 283 282 281 280 278 277 275 274 272 270 269 267 265 262 259 258 257 255 253 252 250 249 249 248 248 249
302 302 302 302 300 299 299 298 297 295 294 292 291 290 288 287 285 284 283 283 281 280 278 277 275 273 271 269 267 265 263 260 258 258 257 255 253 251 250 249 248 247 247
304 304 304 303 302 301 300 299 298 296 295 295 294 293 292 291 290 288 287 285 283 281 280 278 276 274 272 270 268 266 263 260 258 257 256 254 253 251 249 249 249 248 247
Height
5801 5801 5802 5803 5804 5805 5806 5807 5808 5809 5810 5810 5811 5812 5813 5814 5814 5815 5816 5816 5817 5817 5818 5818 5818 5819 5819 5819 5819 5819 5820 5820 5820 5820 5819 5819 5819 5818 5818 5817 5816 5816 5814
5790 5791 5791 5792 5793 5794 5795 5797 5798 5799 5800 5801 5802 5803 5804 5804 5805 5806 5807 5808 5809 5809 5810 5810 5811 5811 5812 5812 5812 5812 5812 5812 5813 5813 5813 5813 5812 5812 5811 5811 5810 5810 5809
5779 5780 5780 5781 5782 5783 5784 5786 5787 5788 5790 5791 5792 5793 5794 5795 5796 5797 5798 5799 5800 5801 5801 5802 5803 5803 5803 5804 5804 5805 5805 5805 5805 5805 5805 5805 5805 5805 5805 5804 5804 5803 5803
5767 5768 5769 5769 5770 5771 5772 5774 5776 5777 5779 5780 5781 5782 5783 5785 5786 5788 5788 5789 5790 5791 5792 5793 5794 5794 5795 5795 5796 5796 5797 5797 5797 5797 5798 5798 5798 5798 5798 5797 5797 5797 5796
5755 5755 5756 5757 5757 5758 5760 5762 5764 5766 5767 5769 5770 5772 5773 5774 5775 5777 5778 5779 5780 5781 5782 5783 5784 5785 5786 5787 5787 5788 5788 5788 5789 5789 5789 5789 5790 5790 5790 5790 5790 5790 5789
5742 5743 5743 5744 5744 5746 5747 5749 5751 5753 5755 5757 5758 5760 5762 5763 5764 5766 5768 5769 5769 5770 5772 5773 5774 5775 5776 5777 5778 5778 5779 5780 5780 5780 5780 5781 5781 5782 5782 5782 5782 5782 5782
5729 5730 5730 5730 5731 5733 5735 5736 5738 5740 5743 5744 5746 5748 5750 5751 5753 5755 5757 5758 5759 5760 5761 5762 5763 5765 5766 5767 5768 5769 5769 5770 5770 5771 5771 5772 5773 5773 5773 5774 5774 5774 5774
5717 5717 5718 5719 5720 5721 5722 5724 5726 5727 5730 5731 5733 5734 5737 5740 5742 5743 5745 5746 5748 5749 5750 5751 5752 5754 5755 5756 5757 5758 5759 5760 5761 5762 5762 5762 5763 5764 5764 5765 5766 5766 5766
5705 5706 5706 5707 5708 5710 5711 5713 5714 5715 5717 5719 5720 5722 5724 5728 5729 5732 5733 5734 5735 5737 5739 5740 5741 5742 5743 5744 5746 5747 5748 5749 5750 5751 5752 5753 5753 5754 5755 5756 5756 5757 5757
5694 5694 5695 5696 5697 5698 5699 5701 5702 5703 5705 5707 5708 5710 5712 5714 5716 5719 5721 5722 5723 5724 5726 5727 5729 5730 5731 5732 5734 5735 5737 5738 5739 5740 5742 5742 5743 5744 5745 5746 5747 5748 5748
5684 5684 5685 5686 5687 5688 5689 5690 5691 5692 5694 5695 5697 5699 5700 5702 5703 5705 5709 5710 5710 5712 5713 5715 5716 5718 5719 5720 5721 5723 5724 5726 5727 5729 5730 5732 5732 5733 5735 5736 5737 5738 5739
5675 5675 5676 5677 5678 5679 5680 5680 5681 5682 5683 5684 5686 5687 5688 5689 5691 5692 5694 5696 5698 5699 5700 5702 5703 5705 5706 5707 5709 5710 5712 5713 5714 5716 5718 5720 5721 5722 5723 5725 5726 5727 5729
5667 5667 5668 5668 5669 5670 5671 5671 5672 5673 5673 5674 5675 5675 5676 5677 5678 5679 5680 5681 5683 5686 5687 5689 5690 5691 5692 5693 5695 5697 5698 5700 5701 5703 5705 5707 5709 5710 5712 5713 5715 5716 5718
5659 5659 5659 5660 5660 5661 5662 5662 5663 5663 5664 5664 5665 5665 5665 5665 5665 5665 5666 5667 5669 5671 5673 5676 5676 5677 5678 5679 5681 5682 5684 5686 5688 5690 5692 5694 5696 5698 5699 5701 5703 5705 5707
5653 5653 5652 5652 5653 5653 5654 5654 5654 5655 5655 5655 5655 5654 5654 5654 5653 5653 5653 5653 5654 5656 5660 5662 5661 5662 5662 5664 5666 5667 5669 5671 5673 5675 5678 5680 5682 5684 5686 5688 5691 5693 5695
5648 5647 5646 5646 5645 5645 5646 5646 5646 5645 5645 5645 5645 5644 5643 5642 5642 5641 5640 5640 5640 5642 5645 5647 5647 5647 5647 5649 5651 5652 5654 5656 5658 5660 5662 5665 5667 5670 5672 5674 5677 5680 5682
5642 5641 5640 5639 5638 5638 5638 5637 5637 5636 5636 5635 5635 5634 5632 5631 5630 5629 5628 5627 5627 5627 5629 5631 5631 5631 5632 5633 5635 5636 5638 5640 5642 5644 5646 5649 5651 5654 5657 5660 5663 5665 5668
5636 5635 5634 5633 5632 5631 5630 5629 5628 5627 5626 5625 5624 5623 5621 5620 5618 5616 5614 5613 5612 5612 5613 5615 5615 5615 5616 5617 5618 5620 5622 5623 5624 5626 5629 5631 5634 5637 5640 5644 5647 5650 5654
5630 5628 5627 5626 5624 5623 5622 5621 5619 5618 5617 5615 5613 5611 5609 5607 5605 5603 5602 5600 5598 5597 5597 5598 5599 5599 5599 5599 5601 5602 5604 5605 5607 5608 5610 5613 5616 5620 5623 5627 5631 5634 5638
5624 5622 5620 5619 5617 5615 5613 5611 5609 5608 5606 5604 5601 5599 5597 5595 5593 5591 5588 5586 5585 5583 5581 5581 5582 5582 5582 5582 5582 5584 5585 5586 5588 5590 5592 5595 5598 5602 5605 5610 5614 5618 5622
5618 5616 5613 5611 5609 5606 5604 5602 5599 5597 5594 5592 5589 5587 5584 5582 5579 5577 5574 5572 5570 5567 5565 5564 5563 5563 5563 5563 5563 5564 5565 5568 5569 5571 5573 5576 5579 5583 5586 5590 5595 5599 5604
5612 5609 5606 5603 5600 5597 5594 5591 5588 5585 5582 5579 5576 5573 5570 5567 5564 5561 5559 5556 5553 5551 5548 5547 5545 5544 5544 5543 5543 5544 5545 5547 5551 5553 5553 5557 5559 5563 5567 5572 5577 5581 5586
5604 5601 5598 5594 5591 5587 5584 5580 5577 5573 5570 5566 5563 5559 5556 5552 5549 5545 5542 5539 5535 5532 5530 5528 5526 5525 5524 5524 5523 5524 5523 5525 5528 5531 5532 5537 5539 5542 5547 5552 5557 5562 5566
5596 5593 5589 5585 5581 5577 5573 5569 5565 5561 5557 5553 5548 5544 5540 5536 5531 5528 5524 5520 5516 5512 5509 5507 5505 5504 5502 5500 5500 5500 5501 5503 5506 5508 5509 5514 5517 5521 5526 5530 5535 5540 5545
5587 5583 5579 5575 5570 5566 5561 5556 5552 5547 5543 5538 5533 5528 5523 5519 5514 5510 5506 5501 5497 5492 5488 5485 5482 5480 5478 5477 5476 5476 5477 5479 5483 5485 5486 5489 5494 5497 5503 5509 5513 5518 5523
5578 5573 5569 5564 5559 5554 5549 5544 5539 5534 5529 5523 5518 5512 5506 5500 5495 5489 5484 5480 5476 5471 5467 5463 5460 5457 5455 5453 5452 5451 5451 5453 5456 5461 5462 5464 5468 5472 5479 5486 5490 5494 5499